User: anonymous   Login
Location: Pilipovskiye Korichintsy
(49.1833°N, 27.4667°E)
Time: 15:02:09
(UTC+00:00)
Language:

Cosmos 1733 Rocket - Orbit

View from above orbital plane
View from above orbital plane
View from above satellite
View from above satellite

Ground track
Ground track

The orbit data is extracted from the following two-line orbital elements,

1 16612U 86018B   21129.27089566  .00000075  00000-0  59926-5 0  9995
2 16612  82.5199  42.0835 0018696 135.3996  28.2921 14.84301460781292
Epoch (UTC): 09 May 2021 06:30:05
Eccentricity: 0.0018696
inclination: 82.5199°
perigee height: 603 km
apogee height: 629 km
right ascension of ascending node: 42.0835°
argument of perigee: 135.3996°
revolutions per day: 14.84301460
mean anomaly at epoch: 28.2921°
orbit number at epoch: 78129

The dashed part of the orbit path shows where the satellite is in the earth's shadow,  

DLR